Regional Weather Roundup
Issued by NWS Memphis, TN

Home | Current Version | Previous Version | Text Only | Print | Product List | Glossary On
Versions: 1 2 3 4 5 6 7 8 9 10 11 12 13 14 15 16 17 18 19 20 21 22 23 24 25 26 27 28 29 30 31 32 33 34 35 36 37 38 39 40 41 42 43 44 45 46 47 48 49 50
000
ASUS44 KMEG 052210
RWRMEG
MEMPHIS CWA HOURLY WEATHER ROUNDUP
NATIONAL WEATHER SERVICE MEMPHIS TN
500 PM CDT THU MAY 05 2016

...WEST TENNESSEE...

CITY           SKY/WX    TMP DP  RH WIND       PRES   REMARKS
MEMPHIS INTL   MOSUNNY   72  38  29 N14       29.94S
NWS MEMPHIS      N/A     69 N/A N/A MISG        N/A
JACKSON        PTSUNNY   64  43  46 N18G26    29.94R
LEXINGTON      PTSUNNY   63  39  42 N14       29.92R
DYERSBURG      MOSUNNY   66  43  42 N18       29.95S
UNION CITY     PTSUNNY   64  43  45 N17       29.96R


...EASTERN ARKANSAS...

CITY           SKY/WX    TMP DP  RH WIND       PRES   REMARKS
JONESBORO      SUNNY     72  34  24 N12G20    29.95S
WEST MEMPHIS   SUNNY     71  37  28 N13       29.93F
BATESVILLE     SUNNY     73  34  23 NW8G17    29.96F
NEWPORT        SUNNY     73  32  22 N9        29.96F
WALNUT RIDGE   SUNNY     73  34  23 N14G20    29.95S
BLYTHEVILLE    MOSUNNY   70  42  36 N23G30    29.96S
NW BLYTHEVILLE MOSUNNY   70  41  35 N9G23     29.95S
SEARCY         SUNNY     74  40  29 N9        29.96F
STUTTGART      SUNNY     73  43  33 N14       29.95S
PINE BLUFF     SUNNY     75  43  31 NW8       29.95F
MONTICELLO     SUNNY     78  41  26 VRB7      29.94F


...NORTH MISSISSIPPI...

CITY           SKY/WX    TMP DP  RH WIND       PRES   REMARKS
TUPELO         SUNNY     70  34  26 NW15G22   29.89S
OXFORD         SUNNY     68  34  28 NW17G24   29.94S
BATESVILLE     FAIR      72  37  27 NW13G22   29.94S
OLIVE BRANCH   MOSUNNY   66  37  34 NW14G29   29.93S
TUNICA         SUNNY     70  37  30 NW18G24   29.95S
CORINTH        PTSUNNY   64  41  42 N12       29.91R
GREENWOOD      SUNNY     73  36  25 N16G23    29.92F
COLUMBUS       SUNNY     72  45  38 NW17G28   29.87S
STARKVILLE     FAIR      72  36  26 NW8G17    29.87S
GOLDEN TRIANGL MOSUNNY   72  37  28 NW18G25   29.87S


...SOUTHEAST MISSOURI...

CITY           SKY/WX    TMP DP  RH WIND       PRES   REMARKS
KENNETT        FAIR      70  41  35 N15G22    29.95R
WEST PLAINS    SUNNY     70  31  23 N12G23    30.00S
POPLAR BLUFF   MOSUNNY   69  42  37 N15G21    29.96S
CAPE GIRARDEAU CLOUDY    63  43  48 N18       30.00R


...NORTHWEST ALABAMA...

CITY           SKY/WX    TMP DP  RH WIND       PRES   REMARKS
MUSCLE SHOALS  MOSUNNY   68  38  33 NW16G23   29.89R


...MIDDLE TENNESSEE...

CITY           SKY/WX    TMP DP  RH WIND       PRES   REMARKS
NASHVILLE      PTSUNNY   60  39  45 NW14G21   29.92S
CLARKSVILLE    CLOUDY    57  41  55 N14       29.95S
COLUMBIA       MOSUNNY   59  43  55 N12       29.91R


...WESTERN KENTUCKY...

CITY           SKY/WX    TMP DP  RH WIND       PRES   REMARKS
PADUCAH        CLOUDY    62  43  49 NE16      29.97S
FORT CAMPBELL  CLOUDY    57  42  57 NW9       29.95S


...CENTRAL ARKANSAS...

CITY           SKY/WX    TMP DP  RH WIND       PRES   REMARKS
LITTLE ROCK    MOSUNNY   79  38  22 NW15G25   29.94F


SKY/WX REPORTED AS FAIR MEANS FEW OR NO CLOUDS BELOW
12 THOUSAND FEET.




USA.gov is the U.S. government's official web portal to all federal, state and local government web resources and services.